AO-07 1 07530U 74089B 13332.89938240 -.00000049 00000-0 -38960-4 0 8341 2 07530 101.4494 316.5255 0011807 327.9617 064.9184 12.53600424786425 FO-29 1 24278U 96046B 13332.54814240 .00000033 00000-0 66444-4 0 2513 2 24278 098.5328 008.9517 0351547 098.1507 065.8525 13.53009972853539 SO-33 1 25509U 98061B 13332.14161054 .00000366 00000-0 59687-4 0 6361 2 25509 031.4314 219.2402 0350739 153.4682 336.0986 14.29244668788368 RS-22 1 27939U 03042A 13332.76653642 .00000705 00000-0 14068-3 0 9893 2 27939 097.7984 152.0700 0013980 028.5267 331.6702 14.64701867543381 VO-52 1 28650U 05017B 13332.83192385 .00001877 00000-0 22788-3 0 5927 2 28650 097.5622 342.9760 0027292 098.8453 312.3800 14.84391890463506 HO-68 1 36122U 09072B 13332.60476979 -.00000044 00000-0 00000 0 0 1015 2 36122 100.2839 025.3368 0007448 340.6296 019.4534 13.16309257190046 AO-73 1 39417U 13066B 13332.79592390 .00002174 00000-0 30531-3 0 277 2 39417 097.8002 045.2001 0061501 171.9311 188.2922 14.77127274 1106 UO-11 1 14781U 84021B 13332.21793326 .00000794 00000-0 10879-3 0 3487 2 14781 097.8823 031.0084 0010251 114.4934 245.7348 14.81136263598214 AO-16 1 20439U 90005D 13332.41657638 .00000169 00000-0 78786-4 0 8933 2 20439 098.4889 268.7499 0011429 038.7390 108.4822 14.32239195245744 LO-19 1 20442U 90005G 13331.24184476 .00000167 00000-0 77277-4 0 8327 2 20442 098.4588 268.8730 0012268 031.9428 106.1393 14.32446410245773 AO-27 1 22825U 93061C 13332.54996758 .00000128 00000-0 67011-4 0 5360 2 22825 098.6390 274.9796 0008944 159.8716 304.6941 14.29619135 52119 IO-26 1 22826U 93061D 13332.17056801 .00000155 00000-0 77362-4 0 2925 2 22826 098.6332 274.8578 0009576 154.6079 329.0835 14.29909086 52198 GO-32 1 25397U 98043D 13331.91056139 .00000056 00000-0 43254-4 0 2160 2 25397 098.4400 292.7397 0001916 140.7417 280.9589 14.23378819799230 NO-44 1 26931U 01043C 13332.75048531 .00000111 00000-0 75193-4 0 4766 2 26931 067.0503 195.2685 0006477 262.8697 137.6657 14.29994358634950 SO-50 1 27607U 02058C 13332.88629780 .00001026 00000-0 17815-3 0 2343 2 27607 064.5565 122.6563 0032030 094.5522 344.1476 14.73217491587979 CO-55 1 27844U 03031E 13331.95063652 .00000309 00000-0 16140-3 0 7950 2 27844 098.7001 338.6452 0010654 133.7124 282.9877 14.21320944539998 CO-57 1 27848U 03031J 13332.49501693 .00000260 00000-0 13987-3 0 7374 2 27848 098.7092 338.7825 0010559 137.9689 015.0318 14.21033981539990 AO-51 1 28375U 04025K 13332.46467653 .00000215 00000-0 77249-4 0 7112 2 28375 098.2254 281.5203 0082295 238.6404 260.3282 14.41216831494990 CP3 1 31129U 07012N 13332.42381388 .00001110 00000-0 25756-3 0 6106 2 31129 097.9128 315.9414 0098159 276.1890 237.5861 14.54017547350857 CO-65 1 32785U 08021C 13332.81676314 .00001757 00000-0 21505-3 0 8001 2 32785 097.7298 025.4976 0015540 125.7683 285.1630 14.84364078302295 PRISM 1 33493U 09002B 13332.73116358 .00004332 00000-0 48745-3 0 4098 2 33493 098.2339 135.3983 0018446 020.3298 339.8575 14.87114133262369 SOHLA-1 1 33496U 09002E 13332.20853823 .00000554 00000-0 99760-4 0 2092 2 33496 098.1511 087.9757 0007314 153.2924 297.7504 14.70464909259976 SO-67 1 35870U 09049F 13332.75038163 .00006825 00000-0 24462-3 0 6539 2 35870 097.1796 355.6696 0003663 091.4271 035.0443 15.29030175233387 TISAT-1 1 36799U 10035E 13332.74556914 .00003125 00000-0 38079-3 0 6725 2 36799 098.0293 058.4197 0013032 252.6157 107.3591 14.84079150182970 STUDSAT 1 36801U 10035G 13332.16282826 .00004276 00000-0 43419-3 0 7232 2 36801 098.0411 062.6871 0010582 230.0786 130.0002 14.90842034183121 ALMASAT-1 1 38078U 12006B 13332.70356039 .00019518 00000-0 44406-3 0 8332 2 38078 069.4774 176.8457 0660909 294.9785 058.4068 14.34173571 92746 XATCOBEO 1 38082U 12006F 13332.59144123 .00069333 42117-5 10314-2 0 7163 2 38082 069.4696 129.0656 0475565 268.9824 085.6792 14.82005018 94046 SOMP 1 39135U 13015F 13332.53203691 .00005717 00000-0 45041-3 0 3814 2 39135 064.8809 052.0607 0005942 331.4859 028.5813 15.01680987 33492 CUBEBUG-1 1 39153U 13018D 13332.73416704 .00001748 00000-0 25598-3 0 6223 2 39153 098.0628 048.3932 0016956 276.3661 083.5599 14.76838720 31967 ESTCUBE-1 1 39161U 13021C 13332.85255092 .00001422 00000-0 24918-3 0 5920 2 39161 098.1178 050.1623 0009302 316.7844 043.2601 14.69304778 30176 NOAA-10 1 16969U 86073A 13332.55589208 .00000117 00000-0 64712-4 0 5820 2 16969 098.5312 356.6981 0013305 122.7045 038.8906 14.27686993415393 NOAA-11 1 19531U 88089A 13332.27366033 .00000105 00000-0 76218-4 0 6063 2 19531 098.7004 051.3526 0012036 149.1670 211.0213 14.15040387299329 NOAA-12 1 21263U 91032A 13332.50737295 .00000097 00000-0 59324-4 0 634 2 21263 098.6833 356.4810 0014958 102.5110 058.1338 14.25603085171963 MET-3/5 1 21655U 91056A 13332.18759615 .00000420 00000-0 10580-2 0 8423 2 21655 082.5544 138.4371 0014264 081.8072 278.4667 13.17047058 71520 MET-2/21 1 22782U 93055A 13332.50190553 .00000037 00000-0 20061-4 0 9086 2 22782 082.5483 332.5396 0023731 108.0357 048.0752 13.83716961 22368 OKEAN-4 1 23317U 94066A 13331.84585368 .00001478 00000-0 17053-3 0 3880 2 23317 082.5403 256.5764 0022109 049.2618 050.0630 14.84826483 33221 NOAA-14 1 23455U 94089A 13332.47231873 .00000011 00000-0 28810-4 0 5403 2 23455 098.7943 054.3515 0008648 246.9033 241.6150 14.13932898975588 NOAA-15 1 25338U 98030A 13332.51003235 .00000171 00000-0 91397-4 0 9691 2 25338 098.7384 321.9429 0010770 016.8953 140.3326 14.25299939808254 RESURS 1 25394U 98043A 13331.89629418 .00000047 00000-0 38417-4 0 5269 2 25394 098.3850 300.0669 0002458 116.7485 296.2067 14.24349621799668 FENGYUN1 1 25730U 99025A 13332.24153425 .00002680 00000-0 15108-2 0 219 2 25730 098.8939 289.9048 0026528 315.5883 147.7404 14.11002742749178 OKEAN-0 1 25860U 99039A 13332.53150671 .00000709 00000-0 11346-3 0 1087 2 25860 098.0150 293.0009 0001287 074.8681 061.5239 14.74812711772571 NOAA-16 1 26536U 00055A 13332.57916472 .00000250 00000-0 15828-3 0 4578 2 26536 099.0208 026.7919 0010809 037.5359 132.6815 14.12948662679782 NOAA-17 1 27453U 02032A 13332.56628140 .00000149 00000-0 81752-4 0 3627 2 27453 098.3106 337.9160 0012338 048.6000 058.6656 14.24649549594129 NOAA-18 1 28654U 05018A 13332.50671763 .00000235 00000-0 15389-3 0 8512 2 28654 099.1233 303.2729 0015278 106.7822 040.8433 14.11899134439244 NOAA-19 1 33591U 09005A 13332.55442382 .00000310 00000-0 19511-3 0 265 2 33591 098.9228 273.4527 0013515 329.7959 135.6570 14.11590241247682 HUBBLE 1 20580U 90037B 13332.31919740 .00002429 00000-0 15833-3 0 3837 2 20580 028.4711 276.4265 0003059 304.2265 189.7560 15.04263451 94438 ISS 1 25544U 98067A 13333.08520601 .00011129 00000-0 19842-3 0 1235 2 25544 051.6512 011.3418 0001309 100.0010 299.2865 15.50607943860280 CO-58 1 28895U 05043F 13332.15174036 .00000951 00000-0 20094-3 0 6320 2 28895 097.8490 179.3156 0016234 285.7618 074.1793 14.61369045430889 FALCON 1 30776U 07006E 13331.89421965 .00007218 00000-0 40865-3 0 7465 2 30776 035.4308 276.3308 0002800 267.3683 132.5601 15.12425586370201 MAST 1 31126U 07012K 13332.06214067 .00000721 00000-0 16928-3 0 9114 2 31126 097.8943 318.7601 0091542 261.4319 169.0776 14.54818024351145 CAPE1 1 31130U 07012P 13331.94130895 .00001075 00000-0 25073-3 0 9148 2 31130 097.9137 315.0908 0098641 278.8439 080.1600 14.53817088350560 COMPASS 1 32787U 08021E 13332.85836944 .00002782 00000-0 32138-3 0 7916 2 32787 097.7325 027.0318 0015700 120.5068 239.7700 14.86297779302416 AAUSAT2 1 32788U 08021F 13332.13950829 .00003134 00000-0 35663-3 0 7746 2 32788 097.7337 027.1035 0015222 121.8930 238.3769 14.86830550302351 DO-64 1 32789U 08021G 13332.74370167 .00005667 00000-0 59048-3 0 8113 2 32789 097.7511 032.5193 0014519 111.3430 036.8535 14.90107378302619 CO-66 1 32791U 08021J 13332.12286666 .00001752 00000-0 20966-3 0 7687 2 32791 097.7325 025.4486 0016242 124.7229 267.8512 14.85280150302200 RS-30 1 32953U 08025A 13332.73774341 .00000010 00000-0 00000 0 0 4215 2 32953 082.5001 325.8624 0017603 232.3995 127.5483 12.43039961250353 METEOR-M 1 35865U 09049A 13332.67740459 .00000014 00000-0 25635-4 0 264 2 35865 098.5812 020.8773 0002283 339.6672 020.4413 14.21899649217849 RS-38 1 35869U 09049E 13332.75200538 .00000067 00000-0 49520-4 0 9857 2 35869 098.5745 020.8141 0004356 328.7681 031.3240 14.22160238217888 JUGNU 1 37839U 11058B 13332.52590111 .00000481 00000-0 11537-3 0 5103 2 37839 019.9633 030.9906 0019068 294.5966 200.7848 14.12211877110156 SRMSAT 1 37841U 11058D 13331.60911265 .00000433 00000-0 93898-4 0 5097 2 37841 019.9738 051.8383 0011663 231.5618 273.7376 14.10271033109875 RAX-2 1 37853U 11061D 13332.76917063 .00007477 00000-0 54688-3 0 6565 2 37853 101.7009 262.7529 0228183 275.0470 112.1906 14.85632552112867 AUBIESAT 1 37854U 11061E 13332.77360361 .00008177 00000-0 58307-3 0 6414 2 37854 101.7051 263.9998 0227257 273.1249 117.4394 14.86572266112890 HRBE 1 37855U 11061F 13332.75248564 .00008721 00000-0 62568-3 0 6502 2 37855 101.7050 263.5904 0228763 273.9216 116.5489 14.86107405112870 RS-39 1 38051U 11062C 13332.79030093 .00021292 00000-0 55671-3 0 152 2 38051 051.6333 133.1762 0010008 146.3793 053.5913 15.38653055103062 E-STAR 1 38079U 12006C 13332.87510713 .00052128 37318-5 88734-3 0 6377 2 38079 069.4665 142.2252 0537354 276.1852 150.7447 14.66413461 93704 GOLIAT 1 38085U 12006J 13332.67372259 .00041075 35466-5 71095-3 0 5791 2 38085 069.4718 146.4471 0550457 278.2786 075.6347 14.63416170 93573 HORYU-2 1 38340U 12025D 13332.29062123 .00001711 00000-0 28400-3 0 6821 2 38340 098.2361 281.5758 0013789 090.8128 269.4633 14.71449453 82242 RS-40 1 38736U 12041D 13332.44977942 .00000010 00000-0 00000 0 0 4370 2 38736 082.4805 052.7066 0020561 330.2944 029.6999 12.42874037 60650 PROITERES 1 38756U 12047B 13332.69515141 .00001040 00000-0 16444-3 0 3437 2 38756 098.2423 052.6707 0011754 307.4418 052.5710 14.74472800 65638 RAIKO 1 38852U 98067CN 13218.07382584 .24681979 12625-4 36599-3 0 3409 2 38852 051.6160 184.0336 0004489 261.9162 100.6538 16.48474690 47849 BEESAT-3 1 39134U 13015E 13332.38712185 .00006176 00000-0 48324-3 0 4345 2 39134 064.8770 052.4216 0006755 328.8147 031.2558 15.01857863 33475 BEESAT-2 1 39136U 13015G 13332.33063871 .00005595 00000-0 44124-3 0 4240 2 39136 064.8743 052.6710 0006942 329.6757 030.3735 15.01663272 33467 ORS OBJ A 1 39380U 13064A 13332.11055449 .00007262 00000-0 32658-3 0 229 2 39380 040.5197 203.2228 0004593 347.0066 013.0639 15.21248898 1233 ORS OBJ B 1 39381U 13064B 13332.50605863 .00003391 00000-0 15867-3 0 114 2 39381 040.5158 200.9354 0005183 345.5002 014.5655 15.20905749 1287 ORS OBJ C 1 39382U 13064C 13331.97937499 .00034065 00000-0 14885-2 0 141 2 39382 040.5056 203.9643 0003548 355.0887 004.9808 15.21404122 1204 ORS OBJ D 1 39383U 13064D 13332.83336197 .00010911 00000-0 48750-3 0 149 2 39383 040.5087 199.0153 0003099 014.3584 345.7268 15.21160203 1339 TECHEDST3 1 39415U 98067DD 13332.35910603 .00082471 00000-0 12685-2 0 257 2 39415 051.6485 014.8294 0002450 347.8341 012.3100 15.53578130 1255 DNEPR E 1 39420U 13066E 13332.27024743 .00001953 00000-0 36646-3 0 149 2 39420 097.7875 044.4986 0144167 167.9608 192.5056 14.59288899 1000 DNEPR L 1 39424U 13066J 13332.56194597 .00001617 00000-0 26115-3 0 79 2 39424 097.7940 044.8879 0097448 168.9397 191.3980 14.69584317 1049 TRITON-1 1 39427U 13066M 13332.17685262 .00001972 00000-0 34273-3 0 60 2 39427 097.7901 044.4646 0120281 168.9847 191.3958 14.64566950 962 DELFIN3XT 1 39428U 13066N 13332.18907164 .00003164 00000-0 56575-3 0 64 2 39428 097.7883 044.4485 0132267 168.5521 191.8667 14.61972510 956 GOMX-1 1 39430U 13066Q 13331.73605364 .00002162 00000-0 42288-3 0 67 2 39430 097.7843 043.9613 0159017 169.3087 191.1545 14.56026443 890 /EX